Flag for China Weather past 2 weeks in Changchun, Jilin, China

Now
59 °F

Fog.


Feels Like: 57 °F
Forecast: 32 / 50 °F
Wind: 13 mph from Southwest

Location: Changchun Airport

Current Time: Oct 25, 2014 at 9:55:56 AM

Latest Report: Oct 25, 2014 at 9:00 AM


Visibility: 1 mi

Pressure: 29.83 "Hg

Humidity: 77%

Dew point: 52 °F

Location of ChangchunLocation

Historic Weather in Changchun — Graph

°F

Changchun temperature yesterday

Maximum temperature yesterday: 68 °F (at 1:00 PM)
Minimum temperature yesterday: 55 °F (at 12:00 AM)
Average temperature yesterday: 61 °F

Past Weeks' High & Low Weather Summary

 TemperatureHumidityPressure
High77 °F (Oct 11, 2:00 PM)87% (Oct 12, 2:00 AM)30.42 "Hg (Oct 12, 2:00 AM)
Low18 °F (Oct 21, 5:00 AM)11% (Oct 20, 3:00 PM)29.68 "Hg (Oct 15, 2:00 PM)
Average49 °F45%30.07 "Hg
* Reported Oct 10 9:00 AM — Oct 25 9:00 AM, Changchun, Weather by CustomWeather, © 2014

Note: Actual official high and low records may vary slightly from our data, if they occured in-between our weather recording intervals... More about our weather records

Advertising

Changchun weather history for previous 24 hours

 ConditionsComfort  
Time TempWeatherWind HumidityBarometerVisibility
9:00 AM
Oct 25
59 °FFog.13 mph77%29.83 "Hg1 mi
8:00 AM59 °FFog.10 mph72%29.83 "Hg1 mi
7:00 AM59 °FFog.10 mph72%29.80 "Hg1 mi
6:00 AM57 °FFog.3 mph72%29.80 "Hg1 mi
5:00 AM57 °FFog.3 mph72%29.80 "Hg1 mi
4:00 AM57 °FFog.3 mph72%29.80 "Hg1 mi
3:00 AM59 °FFog.6 mph68%29.80 "Hg1 mi
2:00 AM57 °FFog.3 mph72%29.80 "Hg1 mi
1:00 AM59 °FFog.1 mph68%29.83 "Hg1 mi
12:00 AM61 °FFog.3 mph68%29.80 "Hg1 mi
11:00 PM
Oct 24
61 °FFog.6 mph68%29.83 "Hg1 mi
10:00 PM63 °FFog.8 mph64%29.83 "Hg1 mi
9:00 PM63 °FFog.10 mph64%29.83 "Hg1 mi
8:00 PM64 °FFog.13 mph60%29.80 "Hg2 mi
7:00 PM64 °FFog.15 mph60%29.80 "Hg2 mi
6:00 PM64 °FOvercast.15 mph56%29.77 "Hg2 mi
5:00 PM66 °FOvercast.13 mph52%29.74 "Hg1 mi
4:00 PM66 °FOvercast.17 mph52%29.74 "Hg1 mi
3:00 PM66 °FOvercast.22 mph52%29.74 "Hg1 mi
2:00 PM68 °FOvercast.24 mph49%29.74 "Hg1 mi
1:00 PM68 °FOvercast.20 mph49%29.74 "Hg1 mi
12:00 PM64 °FOvercast.15 mph56%29.77 "Hg2 mi
11:00 AM61 °FOvercast.13 mph59%29.80 "Hg2 mi
10:00 AM61 °FPartly sunny.15 mph59%29.80 "Hg1 mi
9:00 AM61 °FFog.15 mph59%29.83 "Hg1 mi
Weather by CustomWeather, © 2014

See weather overviewHow to use our weather pages